Content
SEND FEEDBACK

Daily
Averages
Monthly
Summary
United States of America

ST. LUCIE, FLORIDA


Home > North America > United States > Florida
Elevation: 24 feet     Latitude: 27 29N     Longitude: 080 22W

WEATHER
 
SELECT A DAY
Number of Records: 174,819;   Date Range: 1/1/95 - 7/22/14
 
SHARE

PRINT THIS DATA

[ ← Previous Day ]
WEATHER ALMANAC - JANUARY 31, 2013
[ Next Day → ]
[ °C ]   °F
Weather ElementAverageHighLow
Temperature60.6 °F70 °F (1:53 am)44.1 °F (9:53 pm)
Dewpoint52.8 °F66.9 °F (4:53 am)34 °F (5:53 pm)
Humidity78.2 %94 % (5:38 am)35 % (5:53 pm)
Barometer30.07 in30.20 in (9:53 pm)29.94 in (3:53 am)
Wind Speed8.9 mph18.4 mph (5:38 am)
Wind Gust25.3 mph (5:38 am)
Weather ElementAverage
Visibility8 mi
Wind DirectionWNW (283.9 °)

Weather ElementTotal
Precipitation0.26 in
Heating Degree Days8 (Base 65)
Growing Degree Days7.1 (Base 50)
Averaged from 33 records on January 31, 2013
WEATHER CONDITIONS BREAKOUT
WIND DIRECTION BREAKOUT
WEATHER BY HOUR - JANUARY 31, 2013
[ °C ]   °F
Local TimeTemperatureDewpointHumidityBarometerVisibilityWind DirectionWind SpeedGust SpeedPrecipitationEventsConditions
1:53 AM70.0 °F66.0 °F87 %29.96 in10.0 miSSW (200°)9.2 mphClear
2:53 AM69.1 °F66.0 °F90 %29.95 in10.0 miSSW (200°)9.2 mphClear
3:53 AM69.1 °F66.0 °F90 %29.94 in10.0 miSSW (210°)9.2 mphClear
4:53 AM69.1 °F66.9 °F93 %29.94 in9.0 miSSW (210°)10.4 mphScattered Clouds
5:24 AM69.8 °F66.2 °F88 %29.96 in10.0 miWSW (250°)8.1 mphOvercast
5:38 AM66.2 °F64.4 °F94 %29.99 in3.0 miNW (310°)18.4 mph25.3 mph0.04 inRainHeavy Rain
5:41 AM66.2 °F62.6 °F88 %29.99 in2.5 miNW (310°)12.7 mph25.3 mph0.05 inRainRain
5:48 AM64.4 °F62.6 °F94 %29.99 in4.0 miNW (310°)12.7 mph20.7 mph0.06 inRainRain
5:53 AM64.0 °F62.1 °F93 %30.00 in5.0 miWNW (300°)15.0 mph0.06 inRainLight Rain
6:27 AM59.0 °F57.2 °F94 %30.02 in9.0 miNW (310°)12.7 mph23.0 mph0.00 inOvercast
6:53 AM59.0 °F57.0 °F93 %30.05 in10.0 miNW (320°)10.4 mph0.00 inOvercast
7:00 AM59.0 °F57.2 °F94 %30.05 in10.0 miNW (320°)10.4 mphOvercast
7:09 AM59.0 °F57.2 °F94 %30.06 in10.0 miNW (320°)12.7 mph0.00 inRainLight Rain
7:48 AM57.2 °F55.4 °F94 %30.08 in3.0 miNW (320°)10.4 mph0.01 inRainLight Rain
7:53 AM57.0 °F55.0 °F93 %30.08 in3.0 miNW (320°)9.2 mph0.01 inRainLight Rain
8:28 AM57.2 °F55.4 °F94 %30.10 in2.0 miNW (310°)9.2 mph0.01 inRainLight Rain
8:53 AM57.0 °F54.0 °F89 %30.11 in2.0 miNW (320°)8.1 mph0.01 inRainLight Rain
9:00 AM55.4 °F53.6 °F94 %30.10 in6.0 miNNW (340°)8.1 mph0.00 inRainLight Rain
9:53 AM57.9 °F52.0 °F81 %30.12 in10.0 miNorth (350°)8.1 mph0.00 inOvercast
10:53 AM59.0 °F52.0 °F78 %30.13 in7.0 miNNW (340°)8.1 mph17.3 mph0.00 inRainLight Rain
11:53 AM59.0 °F52.0 °F78 %30.13 in10.0 miNW (320°)4.6 mph0.01 inRainLight Rain
12:53 PM66.0 °F53.1 °F63 %30.10 in10.0 miNW (310°)9.2 mph0.00 inPartly Cloudy
1:53 PM69.1 °F52.0 °F54 %30.08 in10.0 miWNW (300°)11.5 mph16.1 mphClear
2:53 PM70.0 °F48.0 °F46 %30.09 in10.0 miNW (310°)9.2 mphClear
3:53 PM70.0 °F45.0 °F41 %30.09 in10.0 miNW (320°)9.2 mphClear
4:53 PM68.0 °F39.9 °F36 %30.11 in10.0 miNW (320°)10.4 mphClear
5:53 PM62.1 °F34.0 °F35 %30.13 in10.0 miNW (310°)9.2 mphClear
6:53 PM53.1 °F39.9 °F61 %30.14 in10.0 miNW (320°)4.6 mphClear
7:53 PM50.0 °F39.0 °F66 %30.17 in10.0 miCalmClear
8:53 PM46.0 °F39.0 °F76 %30.19 in10.0 miNNW (330°)3.5 mphClear
9:53 PM44.1 °F39.0 °F82 %30.20 in10.0 miCalmClear
10:53 PM48.9 °F39.0 °F69 %30.20 in10.0 miNNW (340°)5.8 mphClear
11:53 PM50.0 °F35.1 °F57 %30.20 in10.0 miNW (320°)5.8 mphClear
Hourly data recorded from KFPR, located miles away from St. Lucie, Florida







STORIES FROM OUR PARTNERS